EW3786 Weather Reports


Display with metric or nautical units.
time (UTC)temp
F
wind
direction
speed
MPH
gust
MPH
rain 1hr
in
rain 24hr
in
rain mn
in
humidity
%
barometer
mb
20260506175323 38 357 1.0 5.0 0.00 0.35 0.07 77 1008.0
20260506174816 38 339 2.0 5.0 0.00 0.35 0.07 76 1008.0
20260506174327 38 329 2.0 4.0 0.00 0.35 0.07 76 1008.0
20260506173840 38 323 1.0 6.0 0.00 0.35 0.07 76 1008.0
20260506173353 38 341 4.0 6.0 0.04 0.35 0.07 75 1008.0
20260506172825 38 358 2.0 8.0 0.04 0.35 0.07 75 1008.0
20260506172357 39 354 4.0 7.0 0.04 0.35 0.07 75 1007.9
20260506171827 39 353 4.0 7.0 0.04 0.35 0.07 76 1007.9
20260506171324 39 339 2.0 9.0 0.04 0.35 0.07 76 1007.8
20260506170835 39 308 2.0 9.0 0.04 0.35 0.07 76 1007.9
20260506170328 39 332 3.0 9.0 0.04 0.35 0.07 76 1007.8
20260506165816 39 330 3.0 9.0 0.04 0.35 0.07 75 1007.8
20260506165330 39 308 3.0 12.0 0.04 0.35 0.07 75 1007.8
20260506164844 40 23 6.0 12.0 0.04 0.35 0.07 74 1007.8
20260506164336 40 316 7.0 12.0 0.04 0.35 0.07 75 1007.7
20260506163847 40 319 6.0 13.0 0.04 0.35 0.07 75 1007.7
20260506163319 40 291 7.0 15.0 0.00 0.31 0.06 76 1007.7
20260506162853 40 326 6.0 13.0 0.00 0.31 0.06 78 1007.7
20260506162328 39 296 4.0 10.0 0.00 0.31 0.06 78 1007.6
20260506161818 39 281 4.0 10.0 0.00 0.31 0.06 77 1007.6
20260506161330 39 281 4.0 7.0 0.00 0.31 0.06 79 1007.6
20260506160823 38 297 4.0 8.0 0.00 0.31 0.06 81 1007.6
20260506160317 37 281 4.0 8.0 0.00 0.31 0.06 81 1007.6
20260506155828 37 261 4.0 11.0 0.00 0.31 0.06 78 1007.6
20260506155320 38 302 4.0 11.0 0.00 0.31 0.06 75 1007.5
20260506154815 39 281 4.0 8.0 0.00 0.31 0.06 74 1007.4
20260506154328 39 308 3.0 7.0 0.00 0.31 0.06 74 1007.4
20260506153840 39 341 3.0 7.0 0.00 0.31 0.06 73 1007.4
20260506153331 38 291 3.0 7.0 0.00 0.31 0.06 73 1007.4
20260506152823 39 231 2.0 7.0 0.00 0.31 0.06 71 1007.4
20260506152334 40 281 2.0 9.0 0.00 0.31 0.06 70 1007.4
20260506151827 40 275 3.0 9.0 0.00 0.31 0.06 67 1007.4
20260506151318 41 297 2.0 9.0 0.00 0.31 0.06 67 1007.4
20260506150831 42 296 4.0 9.0 0.00 0.31 0.06 64 1007.4
20260506150328 42 305 2.0 6.0 0.00 0.31 0.06 62 1007.3
20260506145816 43 314 2.0 9.0 0.00 0.31 0.06 60 1007.4
20260506145329 43 320 4.0 10.0 0.00 0.31 0.06 59 1007.3
20260506144820 44 332 5.0 10.0 0.00 0.31 0.06 60 1007.2
20260506144332 44 332 4.0 10.0 0.00 0.31 0.06 60 1007.2
20260506143821 45 349 2.0 8.0 0.00 0.31 0.06 60 1007.2
20260506143355 45 6 3.0 9.0 0.00 0.31 0.06 59 1007.3
20260506142825 45 268 5.0 11.0 0.00 0.31 0.06 58 1007.1
20260506142317 45 331 6.0 11.0 0.00 0.31 0.06 60 1007.1
20260506141835 44 334 3.0 11.0 0.00 0.31 0.06 62 1007.1
20260506141326 44 23 3.0 14.0 0.00 0.31 0.06 61 1007.1
20260506140835 44 342 3.0 14.0 0.00 0.31 0.06 59 1007.1
20260506140327 44 31 6.0 12.0 0.00 0.31 0.06 61 1007.1
20260506135817 44 341 5.0 12.0 0.00 0.31 0.06 60 1007.0
20260506135330 44 306 3.0 10.0 0.00 0.31 0.06 60 1007.0
20260506134818 43 286 3.0 11.0 0.00 0.31 0.06 60 1007.0
20260506134329 43 320 4.0 11.0 0.00 0.31 0.06 60 1006.9
20260506133842 43 312 3.0 9.0 0.00 0.31 0.06 60 1006.9
20260506133318 44 311 4.0 10.0 0.00 0.31 0.06 58 1007.0
20260506132850 45 309 5.0 11.0 0.00 0.31 0.06 56 1007.0
20260506132323 46 331 6.0 11.0 0.00 0.31 0.06 54 1006.9
20260506131835 47 341 5.0 12.0 0.00 0.31 0.06 52 1006.8
20260506131326 48 315 4.0 13.0 0.00 0.31 0.06 54 1006.8
20260506130816 47 326 6.0 13.0 0.00 0.31 0.06 55 1006.8
20260506130329 47 323 8.0 12.0 0.00 0.31 0.06 57 1006.8
20260506125818 46 336 6.0 12.0 0.00 0.31 0.06 58 1006.8
20260506125330 45 308 6.0 11.0 0.00 0.31 0.06 61 1006.8
20260506124821 45 338 4.0 12.0 0.00 0.31 0.06 60 1006.8
20260506124332 46 315 5.0 14.0 0.00 0.31 0.06 55 1006.8
20260506123824 47 327 7.0 14.0 0.00 0.31 0.06 56 1006.7
20260506123316 46 354 5.0 11.0 0.00 0.31 0.06 54 1006.7
20260506122828 47 296 5.0 10.0 0.00 0.31 0.06 57 1006.6
20260506122318 47 296 6.0 10.0 0.00 0.31 0.06 55 1006.6
20260506121831 46 268 5.0 11.0 0.00 0.31 0.06 57 1006.6
20260506121343 45 325 4.0 12.0 0.00 0.31 0.06 57 1006.6
20260506120818 45 286 6.0 12.0 0.00 0.31 0.06 58 1006.6
20260506120331 44 336 4.0 10.0 0.00 0.31 0.06 62 1006.5
20260506115823 44 310 4.0 10.0 0.00 0.31 0.06 60 1006.5
20260506115334 42 322 5.0 10.0 0.00 0.31 0.06 64 1006.5
20260506114828 42 339 3.0 11.0 0.00 0.31 0.06 63 1006.5
20260506114317 42 317 5.0 12.0 0.00 0.31 0.06 65 1006.5
20260506113831 42 308 7.0 12.0 0.00 0.31 0.06 65 1006.4
20260506113343 43 313 5.0 12.0 0.00 0.31 0.06 65 1006.4
20260506112833 43 317 3.0 10.0 0.00 0.31 0.06 63 1006.3
20260506112330 43 4 6.0 10.0 0.00 0.31 0.06 61 1006.2
20260506111822 44 33 4.0 9.0 0.00 0.31 0.06 63 1006.2
20260506111335 44 330 5.0 10.0 0.00 0.31 0.06 64 1006.2
20260506110826 45 286 3.0 10.0 0.00 0.31 0.06 61 1006.1
20260506110320 46 286 4.0 9.0 0.00 0.31 0.06 60 1006.1
20260506105852 46 335 5.0 11.0 0.00 0.31 0.06 64 1006.0
20260506105344 46 318 5.0 10.0 0.00 0.31 0.06 62 1006.0
20260506104836 46 337 2.0 10.0 0.00 0.31 0.06 64 1006.0
20260506104326 46 301 3.0 10.0 0.00 0.31 0.06 68 1005.9
20260506103821 45 286 3.0 9.0 0.00 0.31 0.06 68 1005.8
20260506103334 44 281 3.0 10.0 0.00 0.31 0.06 72 1005.7
20260506102817 43 338 3.0 9.0 0.00 0.31 0.06 70 1005.8
20260506102329 44 328 5.0 10.0 0.00 0.31 0.06 71 1005.8
20260506101818 43 351 4.0 10.0 0.00 0.31 0.06 76 1005.7
20260506100821 43 353 7.0 11.0 0.00 0.31 0.06 71 1005.7
20260506100333 43 313 6.0 11.0 0.00 0.31 0.06 73 1005.6
20260506095837 43 328 5.0 10.0 0.00 0.31 0.06 74 1005.6
20260506095328 42 327 4.0 10.0 0.00 0.31 0.06 78 1005.6
20260506094825 42 345 4.0 11.0 0.04 0.31 0.06 81 1005.5
20260506094337 41 62 4.0 11.0 0.04 0.31 0.06 74 1005.5
20260506093826 41 322 6.0 11.0 0.04 0.31 0.06 80 1005.5
20260506093320 40 354 2.0 12.0 0.08 0.31 0.06 81 1005.4
20260506092831 39 339 2.0 12.0 0.08 0.31 0.06 84 1005.4
20260506092322 38 303 4.0 10.0 0.08 0.31 0.06 79 1005.5
20260506091836 38 329 6.0 11.0 0.08 0.31 0.06 78 1005.4
20260506091326 38 317 5.0 11.0 0.12 0.31 0.06 81 1005.4
20260506090823 38 24 2.0 10.0 0.12 0.31 0.06 79 1005.3
20260506090316 38 347 4.0 10.0 0.12 0.31 0.06 83 1005.1
20260506085829 37 347 5.0 10.0 0.12 0.31 0.06 81 1005.2
20260506085318 37 335 1.0 9.0 0.12 0.31 0.06 81 1005.1
20260506084831 37 360 5.0 9.0 0.08 0.28 0.06 84 1005.1
20260506084320 37 347 3.0 9.0 0.12 0.28 0.06 87 1005.1
20260506083833 36 16 1.0 9.0 0.12 0.28 0.06 86 1005.0
20260506083326 36 8 3.0 9.0 0.08 0.24 0.05 85 1005.0
20260506082821 36 335 4.0 9.0 0.08 0.24 0.05 86 1005.0
20260506082355 36 355 3.0 8.0 0.08 0.24 0.05 86 1004.9
20260506081821 36 23 3.0 8.0 0.12 0.24 0.05 87 1004.9
20260506081352 35 53 4.0 8.0 0.08 0.20 0.04 88 1004.9
20260506080818 35 1 2.0 7.0 0.08 0.20 0.04 88 1004.8
20260506080331 35 333 1.0 5.0 0.08 0.20 0.04 87 1004.7
20260506073331 34 342 3.0 8.0 0.12 0.16 0.03 88 1004.4
20260506072821 34 343 3.0 6.0 0.12 0.16 0.03 89 1004.3
20260506072335 34 341 1.0 9.0 0.12 0.16 0.03 89 1004.3
20260506071827 34 348 5.0 12.0 0.08 0.12 0.02 88 1004.1
20260506071319 34 351 5.0 12.0 0.08 0.12 0.02 88 1004.1
20260506070831 34 323 4.0 10.0 0.08 0.12 0.02 88 1004.1
20260506070325 34 322 5.0 9.0 0.08 0.12 0.02 89 1004.0
20260506062322 33 3 2.0 6.0 0.04 0.04 0.01 91 1003.7
20260506061833 33 16 2.0 4.0 0.04 0.04 0.01 92 1003.6
20260506061346 32 360 0.0 3.0 0.04 0.04 0.01 92 1003.5
20260506060857 32 2 1.0 3.0 0.04 0.04 0.01 92 1003.5
20260506060328 32 360 0.0 4.0 0.04 0.04 0.01 92 1003.4
20260506051331 31 359 3.0 4.0 0.00 0.00 0.00 93 1003.1
20260506050823 31 17 1.0 3.0 0.00 0.00 0.00 94 1003.1
20260506050317 31 41 1.0 4.0 0.00 0.00 0.00 94 1003.0
20260506044831 31 24 0.0 3.0 0.00 0.00 0.00 95 1002.8
20260506044323 31 27 0.0 2.0 0.00 0.00 0.00 95 1002.7
20260506043833 30 27 0.0 0.0 0.00 0.00 0.00 95 1002.7
20260506043330 30 27 0.0 0.0 0.00 0.00 0.00 96 1002.7
20260506042818 30 27 0.0 0.0 0.00 0.00 0.00 96 1002.7
20260506042331 30 27 0.0 0.0 0.00 0.00 0.00 96 1002.6
20260506041820 30 27 0.0 0.0 0.00 0.00 0.00 96 1002.6
20260506041333 30 27 0.0 0.0 0.00 0.00 0.00 96 1002.5
20260506040842 30 27 0.0 0.0 0.00 0.00 0.00 96 1002.4
20260506040332 30 27 0.0 0.0 0.00 0.00 0.00 96 1002.4
20260506035844 30 27 0.0 0.0 0.00 0.00 0.00 96 1002.4
20260506035316 30 27 0.0 0.0 0.00 0.00 0.00 96 1002.3
20260506034828 30 27 0.0 1.0 0.00 0.00 0.00 96 1002.3
20260506034324 30 27 0.0 1.0 0.00 0.00 0.00 96 1002.2
20260506033857 30 27 0.0 0.0 0.00 0.00 0.00 96 1002.2
20260506033328 30 27 0.0 0.0 0.00 0.00 0.00 96 1002.2
20260506032837 29 27 0.0 0.0 0.00 0.00 0.00 96 1002.2
20260506032330 29 27 0.0 1.0 0.00 0.00 0.00 96 1002.2
20260506031820 29 27 0.0 2.0 0.00 0.00 0.00 95 1002.1
20260506031332 29 27 1.0 2.0 0.00 0.00 0.00 95 1002.1
20260506030825 29 25 0.0 0.0 0.00 0.00 0.00 95 1002.1
20260506030334 29 26 0.0 0.0 0.00 0.00 0.00 95 1002.1
20260506025829 29 26 0.0 0.0 0.00 0.00 0.00 95 1002.1
20260506025320 29 26 0.0 0.0 0.00 0.00 0.00 95 1002.0
20260506024832 29 26 0.0 0.0 0.00 0.00 0.00 95 1001.9
20260506024324 29 26 0.0 0.0 0.00 0.00 0.00 95 1001.9
20260506023837 29 26 0.0 0.0 0.00 0.00 0.00 95 1001.9
20260506023328 29 26 0.0 0.0 0.00 0.00 0.00 95 1001.8
20260506022839 29 26 0.0 0.0 0.00 0.00 0.00 94 1001.8
20260506022329 29 26 0.0 0.0 0.00 0.00 0.00 94 1001.8
20260506021818 29 26 0.0 0.0 0.00 0.00 0.00 94 1001.8
20260506021330 29 26 0.0 0.0 0.00 0.00 0.00 94 1001.7
20260506020827 30 26 0.0 0.0 0.00 0.00 0.00 94 1001.6
20260506020320 30 26 0.0 0.0 0.00 0.00 0.00 94 1001.6
20260506015830 30 26 0.0 0.0 0.00 0.00 0.00 94 1001.6
20260506015342 30 26 0.0 0.0 0.00 0.00 0.00 94 1001.5
20260506014833 30 26 0.0 0.0 0.00 0.00 0.00 94 1001.5
20260506014325 30 26 0.0 0.0 0.00 0.00 0.00 94 1001.4
20260506013816 30 26 0.0 0.0 0.00 0.00 0.00 94 1001.3
20260506013330 30 26 0.0 0.0 0.00 0.00 0.00 93 1001.3
20260506012825 30 26 0.0 0.0 0.00 0.00 0.00 93 1001.3
20260506012338 30 26 0.0 0.0 0.00 0.00 0.00 93 1001.2
20260506011850 30 26 0.0 0.0 0.00 0.00 0.00 93 1001.2
20260506011320 30 26 0.0 0.0 0.00 0.00 0.00 93 1001.2
20260506010852 29 26 0.0 0.0 0.00 0.00 0.00 93 1001.2
20260506010323 29 26 0.0 0.0 0.00 0.00 0.00 93 1001.1
20260506005814 29 26 0.0 0.0 0.00 0.00 0.00 92 1001.1
20260506005349 29 26 0.0 0.0 0.00 0.00 0.00 92 1001.1
20260506004818 29 26 0.0 2.0 0.00 0.00 0.00 92 1001.0
20260506004331 29 26 0.0 2.0 0.00 0.00 0.00 92 1001.1
20260506003835 29 26 0.0 3.0 0.00 0.00 0.00 92 1001.0
20260506003331 29 26 0.0 3.0 0.00 0.00 0.00 92 1001.0
20260506002823 29 22 0.0 2.0 0.00 0.00 0.00 92 1001.0
20260506002333 29 22 0.0 2.0 0.00 0.00 0.00 92 1001.0
20260506001848 30 22 0.0 0.0 0.00 0.00 0.00 92 1001.0
20260506001317 30 22 0.0 0.0 0.00 0.00 0.00 92 1001.0
20260506000850 30 22 0.0 0.0 0.00 0.00 0.00 91 1001.0
20260506000323 30 22 0.0 0.0 0.00 0.00 0.00 91 1001.0
20260505235833 30 22 0.0 0.0 0.00 0.00 0.00 91 1001.0
20260505235325 30 22 0.0 6.0 0.00 0.00 0.00 90 1001.0
20260505234819 30 22 1.0 6.0 0.00 0.00 0.00 89 1001.0
20260505234353 30 2 0.0 2.0 0.00 0.00 0.00 88 1001.0
20260505233822 30 358 0.0 0.0 0.00 0.00 0.00 88 1001.0
20260505233315 30 358 0.0 0.0 0.00 0.00 0.00 88 1000.9
20260505232829 30 358 0.0 0.0 0.00 0.00 0.00 88 1001.0
20260505232321 30 358 0.0 2.0 0.00 0.00 0.00 88 1000.9
20260505231831 30 358 0.0 2.0 0.00 0.00 0.00 87 1001.0
20260505231324 30 358 1.0 3.0 0.00 0.00 0.00 87 1001.0
20260505230815 30 352 1.0 3.0 0.00 0.00 0.00 87 1001.0
20260505230349 30 349 0.0 3.0 0.00 0.00 0.00 87 1001.0
20260505225821 30 350 0.0 3.0 0.00 0.00 0.00 86 1001.0
20260505225333 30 350 0.0 2.0 0.00 0.00 0.00 87 1001.0
20260505224844 30 350 0.0 0.0 0.00 0.00 0.00 87 1001.1
20260505224334 30 350 0.0 0.0 0.00 0.00 0.00 86 1001.1
20260505223846 30 348 0.0 0.0 0.00 0.00 0.00 86 1001.1
20260505223337 30 349 0.0 0.0 0.00 0.00 0.00 87 1001.1
20260505222829 30 349 0.0 0.0 0.00 0.00 0.00 86 1001.0
20260505222322 30 348 0.0 1.0 0.00 0.00 0.00 86 1001.0
20260505221835 30 349 0.0 1.0 0.00 0.00 0.00 86 1001.0
20260505221325 30 348 0.0 0.0 0.00 0.00 0.00 87 1001.0
20260505220839 30 348 0.0 0.0 0.00 0.00 0.00 87 1001.0
20260505220351 30 348 0.0 0.0 0.00 0.00 0.00 86 1001.0
20260505215841 30 349 0.0 2.0 0.00 0.00 0.00 86 1001.0
20260505215330 30 348 0.0 3.0 0.00 0.00 0.00 86 1001.0
20260505214823 30 348 1.0 3.0 0.00 0.00 0.00 86 1001.2
20260505214316 30 348 0.0 3.0 0.00 0.00 0.00 85 1001.1
20260505213847 30 348 1.0 3.0 0.00 0.00 0.00 85 1001.1
20260505213338 30 349 0.0 0.0 0.00 0.00 0.00 85 1001.1
20260505212829 30 349 0.0 1.0 0.00 0.00 0.00 85 1001.1
20260505212322 30 349 0.0 1.0 0.00 0.00 0.00 85 1001.1
20260505211833 30 349 0.0 2.0 0.00 0.00 0.00 85 1001.2
20260505211345 30 349 1.0 2.0 0.00 0.00 0.00 85 1001.1
20260505210818 30 349 0.0 1.0 0.00 0.00 0.00 85 1001.2
20260505210331 30 349 0.0 1.0 0.00 0.00 0.00 85 1001.2
20260505205822 30 349 0.0 1.0 0.00 0.00 0.00 85 1001.2
20260505205315 30 349 0.0 2.0 0.00 0.00 0.00 85 1001.2
20260505204827 30 349 1.0 2.0 0.00 0.00 0.00 85 1001.1
20260505204338 30 348 1.0 2.0 0.00 0.00 0.00 84 1001.1
20260505203828 30 346 0.0 1.0 0.00 0.00 0.00 84 1001.1
20260505203341 31 346 0.0 1.0 0.00 0.00 0.00 84 1001.1
20260505202854 31 346 0.0 2.0 0.00 0.00 0.00 84 1001.1
20260505202325 31 346 0.0 3.0 0.00 0.00 0.00 83 1001.2
20260505201819 31 346 2.0 4.0 0.00 0.00 0.00 83 1001.2
20260505201333 31 347 2.0 4.0 0.00 0.00 0.00 83 1001.2
20260505200835 31 357 0.0 2.0 0.00 0.00 0.00 83 1001.3
20260505200349 31 358 0.0 5.0 0.00 0.00 0.00 82 1001.2
20260505195839 31 4 2.0 5.0 0.00 0.00 0.00 82 1001.2
20260505195331 31 10 0.0 3.0 0.00 0.00 0.00 81 1001.2
20260505194818 32 1 1.0 3.0 0.00 0.00 0.00 82 1001.1
20260505194332 32 4 0.0 4.0 0.00 0.00 0.00 82 1001.2
20260505193823 32 4 2.0 4.0 0.00 0.00 0.00 82 1001.2
20260505193319 32 6 2.0 3.0 0.00 0.00 0.00 82 1001.2
20260505192832 32 8 1.0 3.0 0.00 0.00 0.00 82 1001.3
20260505192323 32 8 0.0 4.0 0.00 0.00 0.00 82 1001.2
20260505191817 32 6 0.0 4.0 0.00 0.00 0.00 81 1001.2
20260505191328 32 6 3.0 4.0 0.00 0.00 0.00 81 1001.2
20260505190839 32 2 2.0 8.0 0.00 0.00 0.00 80 1001.1
20260505190332 32 1 2.0 8.0 0.00 0.00 0.00 79 1001.2
20260505185823 33 339 1.0 6.0 0.00 0.00 0.00 78 1001.2
20260505185334 33 336 2.0 6.0 0.00 0.00 0.00 77 1001.2
20260505184848 33 31 1.0 3.0 0.00 0.00 0.00 77 1001.2
20260505184324 33 33 1.0 4.0 0.00 0.00 0.00 76 1001.1
20260505183815 33 33 2.0 4.0 0.00 0.00 0.00 76 1001.0
20260505183328 33 335 0.0 5.0 0.00 0.00 0.00 75 1001.1
20260505182840 33 333 3.0 5.0 0.00 0.00 0.00 75 1001.2
20260505182331 34 332 1.0 5.0 0.00 0.00 0.00 74 1001.2
20260505181820 34 341 1.0 5.0 0.00 0.00 0.00 73 1001.1
20260505181331 34 351 2.0 6.0 0.00 0.00 0.00 73 1001.1
20260505180825 34 348 3.0 8.0 0.00 0.00 0.00 71 1001.1
20260505180321 34 10 4.0 8.0 0.00 0.00 0.00 71 1001.1
20260505175832 35 318 4.0 8.0 0.00 0.00 0.00 71 1001.1